Terug naar catalogus

STARLINK-6293

ActiefCommunicatieVLEO
NORAD 57354·PAYLOAD·🇺🇸 United States

Gelanceerd Jul 16, 2023 vanaf Cape Canaveral Space Force Station

Loading…

Volgende Passages (komende 24 uur)

TLE

VersSource: CelesTrak SupGP

Epoch: Sep 14, 2026, 20:41 UTC

1 57354C 23099AC  26257.86229167  .00022657  00000+0  82123-3 0  2577
2 57354  42.9990 253.3811 0001113 251.6323 344.6853 15.27543718    17

Volg STARLINK-6293 in realtime met AllMySat

Download on the App Store